Location: ??? ???
(33.4974°N, 35.4618°E)
Time: 18:19:09
(UTC+00:00)

Cosmos 1408 - Pass Details

Date: 29 October 2020
Orbit: 470 x 492 km, 82.6° (Epoch: 29 November)

Event Time Altitude Azimuth Distance (km) Brightness Sun altitude
Rises 16:41:58 0° 344° (NNW) 2,556 6.4 -24.1°
Reaches altitude 10° 16:44:10 10° 335° (NNW) 1,675 5.5 -24.6°
Maximum altitude 16:47:32 36° 268° (W) 784 4.1 -25.3°
Drops below altitude 10° 16:50:56 10° 200° (SSW) 1,674 5.5 -26.0°
Sets 16:53:08 0° 192° (SSW) 2,553 6.4 -26.5°
